SCP
0 0 0 0 0 0 0 0 0 0 0 0 0 0 0 0 0 0 0 0 0 0
0 0 0 0 0 0 0 0 0 0 0 0 0 0 0 0 0 0 0 0 0 0
0 0 0 0 0 0 0 0 0 0 0 0 0 0 0 0 0 0 0 0 0 0
0 0 0 0 0 0 0 0 0 0 0 0 0 0 0 0 0 0 0 0 0 0
0 0 0 0 0 0 0 0 0 0 0 0 0 0 0 0 0 0 0 0 0 0
0 0 0 0 0 0 0 0 0 0 0 0 0 0 0 0 0 0 0 0 0 0
0 0 0 0 0 0 0 0 0 0 0 0 0 0 0 0 0 0 0 0 0 0
0 0 0 0 0 0 0 0 0 0 0 0 0 0 0 0 0 0 0 0 0 0
0 0 0 0 0 0 0 0 0 0 0 0 0 0 0 0 0 0 0 0 0 0
0 0 0 0 0 0 0 0 0 0 0 0 0 0 0 0 0 0 0 0 0 0
0 0 0 0 0 0 0 0 0 0 0 0 0 0 0 0 0 0 0 0 0 0
0 0 0 0 0 0 0 0 0 0 0 0 0 0 0 0 0 0 0 0 0 0
0 0 0 0 0 0 0 0 0 0 0 0 0 0 0 0 0 0 0 0 0 -0
0 0 0 0 0 0 0 0 0 0 0 0 0 0 0 0 0 0 0 0 -0 -0
Wind_Speed_500mb
43 37 37 35 51 53 50 50 54 56 53 50 45 41 39 38 40 42 44 48 52 53
45 46 48 54 59 53 55 49 52 55 55 53 48 44 42 42 45 45 46 49 51 58
42 48 51 57 62 62 61 57 55 56 55 52 47 48 49 48 48 49 48 48 51 56
47 49 55 60 63 61 58 55 55 52 47 48 47 49 54 56 56 59 55 53 55 59
49 52 57 61 63 60 57 55 54 47 50 51 51 52 55 56 56 55 61 65 65 67
49 51 56 61 61 58 57 56 53 50 54 57 58 57 57 62 61 60 60 62 67 69
48 52 59 61 58 56 54 51 52 53 58 59 59 56 58 63 64 68 66 63 70 76
49 54 56 56 50 51 50 51 53 60 63 63 65 61 59 59 59 65 73 76 72 75
44 47 48 48 48 49 51 55 58 62 63 68 70 67 64 61 68 67 75 82 77 79
43 44 45 48 52 54 57 63 68 69 68 70 75 79 79 76 77 82 81 85 86 91
39 44 46 48 52 57 59 63 68 71 74 79 79 80 81 81 83 88 94 94 90 93
39 44 47 49 52 57 59 64 70 73 77 78 81 74 79 73 75 84 87 92 97 94
39 45 47 51 59 61 60 66 72 76 74 77 80 78 75 63 78 86 92 94 103 97
39 45 49 57 57 57 65 73 73 70 74 69 69 69 71 80 77 80 88 95 95 90
Wind_Direction_500mb
274 286 288 301 305 307 303 304 302 302 301 298 292 284 276 270 267 263 259 257 251 248
272 285 293 303 307 306 304 302 300 298 296 291 285 277 269 268 265 262 259 256 252 250
272 285 295 302 304 304 304 301 299 299 295 290 282 278 272 269 268 262 258 256 254 250
276 285 295 299 302 302 301 298 297 294 287 283 279 279 278 276 270 263 258 255 254 252
279 289 295 298 300 300 297 295 293 285 281 280 279 276 274 274 269 265 266 263 256 253
281 288 293 296 297 296 293 291 288 281 279 281 289 286 279 286 282 268 267 265 259 255
282 288 292 295 295 292 290 287 285 280 282 281 281 283 277 278 281 271 266 267 272 266
285 290 293 294 291 288 286 284 283 282 285 284 281 278 279 288 287 283 279 273 268 268
286 290 291 291 291 288 284 282 283 285 284 281 281 277 286 286 287 287 278 276 272 269
288 291 291 292 292 291 290 291 291 292 289 284 282 282 284 284 285 282 278 276 274 269
290 290 294 294 296 296 295 296 297 296 293 291 289 289 290 290 282 279 277 273 271 269
294 294 295 298 300 301 302 298 299 298 295 292 291 289 289 289 285 280 277 276 274 268
296 295 298 300 308 307 302 297 298 296 291 290 290 291 293 296 295 288 280 276 269 261
299 304 303 306 306 301 299 299 299 295 298 295 295 296 303 304 296 286 280 274 266 257
Wind_Speed_850mb
43 37 37 35 51 53 50 50 54 56 53 50 45 41 39 38 40 42 44 48 52 53
45 46 48 54 59 53 55 49 52 55 55 53 48 44 42 42 45 45 46 49 51 58
42 48 51 57 62 62 61 57 55 56 55 52 47 48 49 48 48 49 48 48 51 56
47 49 55 60 63 61 58 55 55 52 47 48 47 49 54 56 56 59 55 53 55 59
49 52 57 61 63 60 57 55 54 47 50 51 51 52 55 56 56 55 61 65 65 67
49 51 56 61 61 58 57 56 53 50 54 57 58 57 57 62 61 60 60 62 67 69
48 52 59 61 58 56 54 51 52 53 58 59 59 56 58 63 64 68 66 63 70 76
49 54 56 56 50 51 50 51 53 60 63 63 65 61 59 59 59 65 73 76 72 75
44 47 48 48 48 49 51 55 58 62 63 68 70 67 64 61 68 67 75 82 77 79
43 44 45 48 52 54 57 63 68 69 68 70 75 79 79 76 77 82 81 85 86 91
39 44 46 48 52 57 59 63 68 71 74 79 79 80 81 81 83 88 94 94 90 93
39 44 47 49 52 57 59 64 70 73 77 78 81 74 79 73 75 84 87 92 97 94
39 45 47 51 59 61 60 66 72 76 74 77 80 78 75 63 78 86 92 94 103 97
39 45 49 57 57 57 65 73 73 70 74 69 69 69 71 80 77 80 88 95 95 90
Wind_Direction_850mb
274 286 288 301 305 307 303 304 302 302 301 298 292 284 276 270 267 263 259 257 251 248
272 285 293 303 307 306 304 302 300 298 296 291 285 277 269 268 265 262 259 256 252 250
272 285 295 302 304 304 304 301 299 299 295 290 282 278 272 269 268 262 258 256 254 250
276 285 295 299 302 302 301 298 297 294 287 283 279 279 278 276 270 263 258 255 254 252
279 289 295 298 300 300 297 295 293 285 281 280 279 276 274 274 269 265 266 263 256 253
281 288 293 296 297 296 293 291 288 281 279 281 289 286 279 286 282 268 267 265 259 255
282 288 292 295 295 292 290 287 285 280 282 281 281 283 277 278 281 271 266 267 272 266
285 290 293 294 291 288 286 284 283 282 285 284 281 278 279 288 287 283 279 273 268 268
286 290 291 291 291 288 284 282 283 285 284 281 281 277 286 286 287 287 278 276 272 269
288 291 291 292 292 291 290 291 291 292 289 284 282 282 284 284 285 282 278 276 274 269
290 290 294 294 296 296 295 296 297 296 293 291 289 289 290 290 282 279 277 273 271 269
294 294 295 298 300 301 302 298 299 298 295 292 291 289 289 289 285 280 277 276 274 268
296 295 298 300 308 307 302 297 298 296 291 290 290 291 293 296 295 288 280 276 269 261
299 304 303 306 306 301 299 299 299 295 298 295 295 296 303 304 296 286 280 274 266 257